Terug naar catalogus

STARLINK-34608

ActiefCommunicatieVLEO
NORAD 64810·PAYLOAD·🇺🇸 United States

Gelanceerd Jul 16, 2025 vanaf Vandenberg Space Force Base

Loading…

Volgende Passages (komende 24 uur)

TLE

VersSource: CelesTrak SupGP

Epoch: Sep 14, 2026, 21:39 UTC

1 64810C 25150W   26257.90256944 -.00018148  00000+0 -15193-2 0  2574
2 64810  70.0027  17.2694 0003255 260.4787  37.8263 14.98378816    10

Volg STARLINK-34608 in realtime met AllMySat

Download on the App Store